Weather History for KDHT - July, 2014

Change the Weather History Date:

Tuesday, July 15, 2014

  Actual Average Record
Temperature  
Mean Temperature 73 °F 77 °F  
Max Temperature 81 °F 92 °F 103 °F (2011)
Min Temperature 64 °F 62 °F 52 °F (1973)
Degree Days  
Heating Degree Days 0 0  
Month to date heating degree days 0 0  
Since 1 June heating degree days 4 12  
Since 1 July heating degree days 0 0  
Cooling Degree Days 8 12  
Month to date cooling degree days 180 176  
Year to date cooling degree days 596 488  
Since 1 June cooling degree days 476 416  
Growing Degree Days 22 (Base 50)    
Moisture  
Dew Point 62 °F    
Average Humidity 74    
Maximum Humidity 93    
Minimum Humidity 54    
Precipitation  
Precipitation 0.00 in 0.09 in 1.19 in (1981)
Month to date precipitation 0.98 1.21  
Year to date precipitation 6.59 8.92  
Snow  
Snow 0.00 in 0.00 in 0.00 in ()
Month to date snowfall 0.0 0.0  
Since 1 June snowfall 0.0 0.0  
Since 1 July snowfall 0.0 0.0  
Snow Depth 0.00 in    
Sea Level Pressure  
Sea Level Pressure 30.13 in    
Wind  
Wind Speed 12 mph (SE)    
Max Wind Speed 21 mph    
Max Gust Speed 24 mph    
Visibility 7 miles    
Events Fog    
T = Trace of Precipitation, MM = Missing Value Source: NWS Daily Summary

Daily Weather History Graph

Daily Weather History Graph

Search for Another Location

Airport or City:

Trip Planner

Search our weather history database for the weather conditions in past years. The results will help you decide how hot, cold, wet, or windy it might be!

Date:

Astronomy

Jul. 15, 2014 Rise Set
Actual Time 6:44 AM CDT 9:07 PM CDT
Civil Twilight 6:15 AM CDT 9:36 PM CDT
Nautical Twilight 5:39 AM CDT 10:12 PM CDT
Astronomical Twilight 4:59 AM CDT 10:52 PM CDT
Moon 11:25 PM CDT (7/15) 10:33 AM CDT (7/15)
Length of Visible Light 15h 20m
Length of Day
14h 22m
Waning Gibbous, 85% of the Moon is Illuminated
Jul 15
Waning Gibbous
Jul 18
Last Quarter
Jul 26
New
Aug 3
First Quarter
Aug 10
Full

Hourly Weather History & Observations

Time (CDT) Temp. Heat Index Dew Point Humidity Pressure Visibility Wind Dir Wind Speed Gust Speed Precip Events Conditions
12:53 AM 70.0 °F - 64.0 °F 81% 30.08 in 10.0 mi North 6.9 mph - N/A   Clear
1:53 AM 68.0 °F - 62.1 °F 81% 30.09 in 10.0 mi ENE 6.9 mph - N/A   Clear
2:53 AM 66.0 °F - 62.1 °F 87% 30.08 in 9.0 mi Calm Calm - N/A   Clear
3:53 AM 66.0 °F - 62.1 °F 87% 30.06 in 8.0 mi East 3.5 mph - N/A   Clear
4:53 AM 64.9 °F - 62.1 °F 90% 30.07 in 7.0 mi NNE 5.8 mph - N/A   Clear
5:46 AM 64.9 °F - 61.0 °F 87% 30.24 in 5.0 mi NE 5.8 mph - N/A   Partly Cloudy
5:53 AM 64.9 °F - 62.1 °F 90% 30.12 in 4.0 mi ENE 8.1 mph - N/A   Scattered Clouds
6:19 AM 64.9 °F - 62.1 °F 90% 30.24 in 3.0 mi East 9.2 mph - N/A   Mostly Cloudy
6:24 AM 64.9 °F - 62.1 °F 90% 30.24 in 2.5 mi East 10.4 mph - N/A   Mostly Cloudy
6:53 AM 64.9 °F - 62.1 °F 90% 30.11 in 2.5 mi East 10.4 mph - N/A   Overcast
7:06 AM 64.9 °F - 62.1 °F 90% 30.24 in 1.2 mi ESE 15.0 mph - N/A   Overcast
7:18 AM 64.0 °F - 63.0 °F 96% 30.24 in 0.5 mi ESE 12.7 mph - N/A Fog Fog
7:26 AM 64.0 °F - 63.0 °F 96% 30.24 in 0.2 mi ESE 13.8 mph - N/A Fog Fog
7:41 AM 64.9 °F - 63.0 °F 93% 30.24 in 1.0 mi SE 12.7 mph - N/A   Overcast
7:53 AM 66.0 °F - 63.0 °F 90% 30.11 in 1.8 mi SE 15.0 mph - N/A   Overcast
8:05 AM 66.0 °F - 63.0 °F 90% 30.24 in 2.0 mi SE 13.8 mph - N/A   Overcast
8:21 AM 66.0 °F - 63.0 °F 90% 30.25 in 3.0 mi SE 12.7 mph - N/A   Overcast
8:53 AM 68.0 °F - 63.0 °F 84% 30.12 in 5.0 mi SE 12.7 mph - N/A   Haze
9:32 AM 69.1 °F - 63.0 °F 81% 30.26 in 6.0 mi SSE 16.1 mph - N/A   Haze
9:51 AM 69.8 °F - 62.6 °F 78% 30.26 in 9.0 mi SSE 16.1 mph - N/A   Mostly Cloudy
9:53 AM 69.1 °F - 62.1 °F 78% 30.12 in 9.0 mi SSE 16.1 mph - N/A   Mostly Cloudy
10:05 AM 69.1 °F - 61.0 °F 75% 30.26 in 10.0 mi SSE 15.0 mph - N/A   Scattered Clouds
10:53 AM 70.0 °F - 61.0 °F 73% 30.11 in 10.0 mi SSE 15.0 mph - N/A   Scattered Clouds
11:01 AM 71.1 °F - 61.0 °F 70% 30.25 in 10.0 mi SE 13.8 mph - N/A   Mostly Cloudy
11:18 AM 71.1 °F - 60.1 °F 68% 30.25 in 10.0 mi SSE 15.0 mph - N/A   Scattered Clouds
11:53 AM 72.0 °F - 60.1 °F 66% 30.09 in 10.0 mi SSE 15.0 mph - N/A   Scattered Clouds
12:53 PM 75.0 °F - 60.1 °F 60% 30.07 in 10.0 mi SSE 12.7 mph - N/A   Mostly Cloudy
1:13 PM 73.9 °F - 60.1 °F 62% 30.23 in 10.0 mi SSE 12.7 mph - N/A   Mostly Cloudy
1:20 PM 75.0 °F - 60.1 °F 60% 30.23 in 10.0 mi SSE 13.8 mph - N/A   Mostly Cloudy
1:53 PM 75.9 °F - 61.0 °F 60% 30.06 in 10.0 mi SSE 10.4 mph - N/A   Overcast
2:53 PM 77.0 °F - 61.0 °F 58% 30.03 in 10.0 mi SSE 16.1 mph - N/A   Mostly Cloudy
3:53 PM 77.0 °F - 62.1 °F 60% 30.01 in 10.0 mi SSE 16.1 mph - N/A   Overcast
4:53 PM 80.1 °F 81.2 °F 62.1 °F 54% 29.98 in 10.0 mi SSE 15.0 mph - N/A   Mostly Cloudy
5:53 PM 79.0 °F - 60.1 °F 52% 29.96 in 10.0 mi SSE 13.8 mph - N/A   Partly Cloudy
6:53 PM 77.0 °F - 61.0 °F 58% 29.93 in 10.0 mi SSE 17.3 mph - N/A   Partly Cloudy
7:53 PM 75.9 °F - 61.0 °F 60% 29.94 in 10.0 mi SSE 15.0 mph - N/A   Clear
8:53 PM 73.0 °F - 62.1 °F 68% 29.95 in 10.0 mi SE 12.7 mph - N/A   Clear
9:53 PM 72.0 °F - 62.1 °F 71% 29.97 in 10.0 mi SSE 13.8 mph - N/A   Clear
10:53 PM 69.8 °F - 62.6 °F 78% 30.14 in 10.0 mi SSE 13.8 mph - N/A   Clear
11:53 PM 69.1 °F - 61.0 °F 75% 29.97 in 10.0 mi SSE 16.1 mph - N/A   Clear